Home > Weather > Chinle > Past weeks

Flag for USA Past Weather in Chinle, Arizona, USA — Yesterday and Last 2 Weeks

Now
67 °F

Passing clouds.


Feels Like: 67 °F
Forecast: 58 / 85 °F
Wind: No wind

Location: Window Rock Airport

Current Time: Jul 1, 2016 at 6:26:35 PM

Latest Report: Jul 1, 2016 at 5:53 PM


Visibility: 10 mi

Pressure: 29.85 "Hg (24.54 "Hg at 1678m altitude)

Humidity: 68%

Dew Point: 56 °F

Location of ChinleLocation

Past Weather in Chinle — Graph

°F

Chinle Temperature Yesterday

Maximum temperature yesterday: 79 °F (at 10:53 AM)
Minimum temperature yesterday: 64 °F (at 6:53 AM)
Average temperature yesterday: 70 °F

High & Low Weather Summary for the Past Weeks

 TemperatureHumidityPressure
High98 °F (Jun 19, 4:53 PM)90% (Jul 1, 2:56 PM)30.26 "Hg (Jul 1, 2:56 PM)
Low39 °F (Jun 17, 5:53 AM)4% (Jun 17, 2:53 PM)29.70 "Hg (Jun 25, 5:53 PM)
Average74 °F29%29.90 "Hg
* Reported Jun 16 4:53 PM — Jul 1 4:53 PM, Chinle, Weather by CustomWeather, © 2016

Note: Actual official high and low records may vary slightly from our data, if they occured in-between our weather recording intervals... More about our weather records

Advertising

Chinle Weather History for the Previous 24 Hours

Scroll right to see more
 ConditionsComfort  
Time TempWeatherWind HumidityBarometerVisibility
4:53 PM
Fri, Jul 1
65 °FScattered clouds.3 mph73%29.88 "Hg10 mi
3:53 PM61 °FMostly cloudy.N/A83%29.93 "Hg10 mi
2:56 PM59 °FLight rain. Fog.8 mph90%30.26 "Hg2 mi
2:03 PM66 °FMostly cloudy.3 mph68%30.26 "Hg10 mi
1:53 PM65 °FMostly cloudy.3 mph70%29.93 "Hg10 mi
12:53 PM64 °FMostly cloudy.No wind73%29.95 "Hg10 mi
11:53 AM61 °FLight rain. More clouds than sun.3 mph83%29.97 "Hg7 mi
10:53 AM62 °FLight rain. Mostly cloudy.6 mph78%29.98 "Hg10 mi
9:53 AM61 °FLight rain. Overcast.6 mph83%29.98 "Hg5 mi
8:53 AM64 °FLight rain. Overcast.7 mph65%29.95 "Hg10 mi
7:53 AM65 °FOvercast.3 mph61%29.93 "Hg10 mi
6:53 AM63 °FPassing clouds.6 mph65%29.95 "Hg10 mi
5:53 AM63 °FPassing clouds.5 mph63%29.88 "Hg10 mi
4:53 AM63 °FPassing clouds.7 mph63%29.88 "Hg10 mi
3:53 AM62 °FOvercast.3 mph62%29.89 "Hg10 mi
2:53 AM64 °FMostly cloudy.No wind58%29.91 "Hg10 mi
1:53 AM65 °FPassing clouds.5 mph59%29.94 "Hg10 mi
12:53 AM66 °FPassing clouds.8 mph56%29.95 "Hg10 mi
11:53 PM
Thu, Jun 30
66 °FPassing clouds.No wind56%29.95 "Hg10 mi
10:53 PM66 °FOvercast.5 mph59%29.90 "Hg10 mi
9:53 PM65 °FClear.No wind61%29.89 "Hg10 mi
8:53 PM67 °FSunny.3 mph61%29.89 "Hg10 mi
7:53 PM67 °FSunny.No wind63%29.91 "Hg10 mi
6:53 PM66 °FBroken clouds.9 mph65%29.93 "Hg10 mi
Weather by CustomWeather, © 2016

See weather overviewHow to use our weather pages